Hourly Weather Pazardzhik

Today, 24 January, Sunday

Time Temperature Precipitation Wind Pressure Humidity
00:00 +8°C° 0.4 mm 2 mps 733 mmHg 90%
01:00 +8°C° 0.4 mm 2 mps 734 mmHg 90%
02:00 +7°C° 0.4 mm 2 mps 734 mmHg 90%
03:00 +7°C° 0 mm 2 mps 734 mmHg 88%
04:00 +6°C° 0 mm 2 mps 734 mmHg 87%
05:00 +6°C° 0 mm 2 mps 734 mmHg 86%
06:00 +6°C° 0 mm 2 mps 734 mmHg 85%
07:00 +5°C° 0 mm 2 mps 734 mmHg 84%
08:00 +5°C° 0 mm 2 mps 735 mmHg 83%
09:00 +7°C° 0 mm 2 mps 735 mmHg 78%
10:00 +9°C° 0 mm 2 mps 735 mmHg 73%
11:00 +10°C° 0 mm 2 mps 735 mmHg 67%
12:00 +12°C° 0 mm 2 mps 735 mmHg 65%
13:00 +12°C° 0 mm 2 mps 734 mmHg 63%
14:00 +12°C° 0 mm 3 mps 734 mmHg 61%
15:00 +12°C° 0 mm 2 mps 734 mmHg 65%
16:00 +10°C° 0 mm 2 mps 734 mmHg 69%
17:00 +10°C° 0 mm 2 mps 734 mmHg 72%
18:00 +9°C° 0 mm 2 mps 734 mmHg 74%
19:00 +9°C° 0 mm 2 mps 734 mmHg 75%
20:00 +8°C° 0 mm 2 mps 734 mmHg 76%
21:00 +8°C° 0 mm 2 mps 734 mmHg 78%
22:00 +8°C° 0 mm 2 mps 733 mmHg 79%
23:00 +8°C° 0 mm 2 mps 733 mmHg 81%

Tomorrow, 25 January, Monday

Time Temperature Precipitation Wind Pressure Humidity
00:00 +8°C° 0 mm 2 mps 732 mmHg 82%
01:00 +7°C° 0 mm 2 mps 731 mmHg 84%
02:00 +7°C° 0 mm 2 mps 731 mmHg 85%
03:00 +8°C° 0.4 mm 2 mps 729 mmHg 87%
04:00 +8°C° 0.4 mm 2 mps 728 mmHg 88%
05:00 +8°C° 0.4 mm 2 mps 727 mmHg 90%
06:00 +8°C° 0.3 mm 2 mps 727 mmHg 89%
07:00 +8°C° 0.3 mm 2 mps 727 mmHg 88%
08:00 +8°C° 0.3 mm 3 mps 726 mmHg 87%
09:00 +9°C° 0 mm 3 mps 727 mmHg 78%
10:00 +10°C° 0 mm 4 mps 727 mmHg 70%
11:00 +12°C° 0 mm 4 mps 728 mmHg 62%
12:00 +12°C° 0.2 mm 5 mps 729 mmHg 60%
13:00 +10°C° 0.2 mm 6 mps 729 mmHg 57%
14:00 +10°C° 0.2 mm 8 mps 730 mmHg 55%
15:00 +10°C° 0 mm 6 mps 731 mmHg 57%
16:00 +9°C° 0 mm 5 mps 731 mmHg 60%
17:00 +8°C° 0 mm 4 mps 731 mmHg 62%
18:00 +8°C° 0 mm 3 mps 732 mmHg 66%
19:00 +7°C° 0 mm 3 mps 733 mmHg 70%
20:00 +6°C° 0 mm 2 mps 734 mmHg 75%
21:00 +4°C° 0.3 mm 3 mps 734 mmHg 77%
22:00 +4°C° 0.3 mm 4 mps 735 mmHg 79%
23:00 +3°C° 0.3 mm 4 mps 735 mmHg 81%

Day after tomorrow, 26 January, Tuesday

Time Temperature Precipitation Wind Pressure Humidity
00:00 +3°C° 0.2 mm 4 mps 736 mmHg 80%
01:00 +2°C° 0.2 mm 3 mps 736 mmHg 79%
02:00 +2°C° 0.2 mm 3 mps 737 mmHg 78%
03:00 +1°C° 0 mm 3 mps 737 mmHg 78%
04:00 +1°C° 0 mm 3 mps 738 mmHg 77%
05:00 +2°C° 0 mm 2 mps 738 mmHg 76%
06:00 +1°C° 0 mm 2 mps 739 mmHg 75%
07:00 +1°C° 0 mm 2 mps 740 mmHg 74%
08:00 +1°C° 0 mm 2 mps 740 mmHg 73%
09:00 +1°C° 0 mm 3 mps 741 mmHg 67%
10:00 +2°C° 0 mm 3 mps 741 mmHg 60%
11:00 +3°C° 0 mm 3 mps 742 mmHg 54%
12:00 +4°C° 0 mm 3 mps 741 mmHg 52%
13:00 +4°C° 0 mm 3 mps 741 mmHg 50%
14:00 +5°C° 0 mm 3 mps 741 mmHg 47%
15:00 +4°C° 0 mm 3 mps 741 mmHg 51%
16:00 +5°C° 0 mm 2 mps 742 mmHg 55%
17:00 +4°C° 0 mm 2 mps 742 mmHg 58%
18:00 +3°C° 0 mm 2 mps 742 mmHg 60%
19:00 +3°C° 0 mm 2 mps 742 mmHg 62%
20:00 +3°C° 0 mm 1 mps 743 mmHg 63%
21:00 +2°C° 0 mm 1 mps 743 mmHg 63%
22:00 +2°C° 0 mm 1 mps 743 mmHg 63%
23:00 +1°C° 0 mm 2 mps 743 mmHg 63%

27 January, Wednesday

Time Temperature Precipitation Wind Pressure Humidity
00:00 +2°C° 0 mm 1 mps 743 mmHg 62%
01:00 +2°C° 0 mm 1 mps 743 mmHg 60%
02:00 +2°C° 0 mm 1 mps 743 mmHg 58%
03:00 +1°C° 0 mm 1 mps 743 mmHg 57%
04:00 +1°C° 0 mm 1 mps 742 mmHg 55%
05:00 +1°C° 0 mm 1 mps 742 mmHg 54%
06:00 +1°C° 0 mm 1 mps 742 mmHg 53%
07:00 +1°C° 0 mm 1 mps 742 mmHg 52%
08:00 +1°C° 0 mm 1 mps 742 mmHg 51%
09:00 +3°C° 0 mm 1 mps 742 mmHg 46%
10:00 +4°C° 0 mm 2 mps 742 mmHg 40%
11:00 +5°C° 0 mm 2 mps 742 mmHg 35%
12:00 +6°C° 0 mm 2 mps 741 mmHg 35%
13:00 +5°C° 0 mm 3 mps 741 mmHg 35%
14:00 +5°C° 0 mm 3 mps 741 mmHg 35%
15:00 +4°C° 0 mm 3 mps 741 mmHg 41%
16:00 +5°C° 0 mm 2 mps 741 mmHg 47%
17:00 +4°C° 0 mm 2 mps 741 mmHg 53%
18:00 +2°C° 0 mm 2 mps 741 mmHg 57%
19:00 +1°C° 0 mm 2 mps 741 mmHg 61%
20:00 +1°C° 0 mm 1 mps 742 mmHg 64%
21:00 -1°C° 0 mm 2 mps 742 mmHg 64%
22:00 -1°C° 0 mm 2 mps 742 mmHg 64%
23:00 -1°C° 0 mm 2 mps 742 mmHg 63%

28 January, Thursday

Time Temperature Precipitation Wind Pressure Humidity
00:00 -1°C° 0 mm 2 mps 742 mmHg 61%
01:00 -1°C° 0 mm 2 mps 742 mmHg 60%
02:00 -1°C° 0 mm 2 mps 742 mmHg 58%
03:00 -1°C° 0 mm 2 mps 742 mmHg 55%
04:00 +1°C° 0 mm 1 mps 742 mmHg 52%
05:00 +1°C° 0 mm 1 mps 742 mmHg 49%
06:00 +2°C° 0 mm 1 mps 742 mmHg 49%
07:00 +2°C° 0 mm 1 mps 742 mmHg 48%
08:00 +2°C° 0 mm 1 mps 742 mmHg 47%
09:00 +3°C° 0 mm 1 mps 742 mmHg 49%
10:00 +3°C° 0 mm 2 mps 742 mmHg 51%
11:00 +4°C° 0 mm 2 mps 742 mmHg 53%
12:00 +5°C° 0.1 mm 2 mps 742 mmHg 54%
13:00 +5°C° 0.1 mm 3 mps 742 mmHg 55%
14:00 +7°C° 0.1 mm 3 mps 741 mmHg 56%
15:00 +5°C° 0 mm 3 mps 741 mmHg 61%
16:00 +4°C° 0 mm 3 mps 741 mmHg 66%
17:00 +5°C° 0 mm 2 mps 741 mmHg 71%
18:00 +4°C° 0 mm 2 mps 741 mmHg 72%
19:00 +3°C° 0 mm 2 mps 741 mmHg 74%
20:00 +3°C° 0 mm 2 mps 741 mmHg 76%

29 January, Friday

Time Temperature Precipitation Wind Pressure Humidity
Show more